[[{"header":{"parameterUnit":"m.s-1","parameterCategory":1,"la1":30.2991,"la2":30.254,"lo1":-89.0895,"lo2":-89.0444,"dy":0.0017,"dx":0.0017,"nx":28,"ny":28,"refTime":"2024-08-20T03:00:00:Z","depth":0,"parameterNumber":2,"parameterNumberName":"U-component_of_WINDS"},"data":[0,0,0,0,0,0,0,0,0,0,0,0,0,0,0,0,0,0,0,0,0,0,0,0,0,0,0,0,0,0,0,0,0,0,0,0,0,0,0,0,0,0,0,0,0,0,0,0,0,0,0,0,0,0,0,0,0,0,-0.2357,-0.2356,0,-0.2294,-0.2293,-0.2292,-0.2254,-0.2254,-0.2254,-0.2253,-0.2183,-0.2181,-0.2179,0,0,0,0,0,0,0,0,0,0,0,0,0,-0.2437,-0.2436,-0.2357,-0.2356,-0.2355,-0.2294,-0.2293,-0.2292,-0.2254,-0.2254,-0.2253,-0.2253,-0.2183,-0.2181,-0.2179,0,0,0,0,0,0,0,0,0,0,0,0,0,-0.2391,-0.2436,-0.2357,-0.2329,-0.2326,-0.2294,-0.2293,-0.2292,-0.2254,-0.2254,-0.2253,-0.2253,-0.2184,-0.2181,-0.2179,-0.2168,0,0,-0.2171,-0.217,0,0,0,0,0,0,0,0,-0.2394,-0.2388,-0.2334,-0.2331,-0.2327,-0.2282,-0.2296,-0.225,-0.2254,-0.2281,-0.2253,-0.2253,-0.2215,-0.221,-0.2199,-0.2165,-0.2162,-0.2171,-0.2169,-0.2168,-0.2167,0,0,0,0,0,0,0,-0.2397,-0.2391,-0.2332,-0.2333,-0.2329,-0.2317,-0.231,-0.2287,-0.225,-0.2279,-0.2276,-0.2269,-0.2213,-0.2201,-0.2197,-0.2161,-0.2171,-0.2169,-0.2167,-0.2166,-0.2114,-0.2114,0,0,0,0,0,0,-0.2406,-0.2394,-0.2334,-0.233,-0.2361,-0.2316,-0.2308,-0.2296,-0.2251,-0.2243,-0.2269,-0.2268,-0.2206,-0.22,-0.2194,-0.2179,-0.2168,-0.2166,-0.2164,-0.2114,-0.2114,-0.2114,0,0,0,0,0,0,-0.2408,-0.2401,-0.2336,-0.2361,-0.2352,-0.2315,-0.2302,-0.2295,-0.2283,-0.2244,-0.2236,-0.2264,-0.2205,-0.2198,-0.2175,-0.2176,-0.2165,-0.2162,-0.2113,-0.2114,-0.2114,-0.2148,0,0,0,0,0,0,-0.241,-0.2402,-0.2399,-0.2361,-0.2351,-0.2321,-0.2302,-0.2294,-0.228,-0.2277,-0.2237,-0.223,-0.2205,-0.2179,-0.2173,-0.2172,-0.216,-0.2113,-0.2114,-0.2114,-0.2146,-0.2149,-0.2151,0,0,0,0,0,-0.2413,-0.241,-0.2399,-0.2392,-0.2347,-0.2321,-0.2315,-0.2288,-0.228,-0.2276,-0.225,-0.2231,-0.2176,-0.2177,-0.217,-0.2168,-0.2113,-0.2113,-0.2114,-0.2145,-0.2148,-0.2151,0,0,0,0,0,0,-0.2447,-0.2405,-0.2392,-0.2377,-0.2353,-0.2315,-0.2309,-0.2292,-0.2268,-0.2266,-0.2231,-0.2222,-0.2203,-0.2183,-0.2185,-0.2154,-0.2142,-0.2141,-0.2169,-0.2172,-0.2174,-0.218,-0.2158,0,0,0,0,0,-0.2453,-0.2437,-0.24,-0.239,-0.2379,-0.2346,-0.2334,-0.2315,-0.2288,-0.2277,-0.2249,-0.2222,-0.2198,-0.2184,-0.216,-0.2143,-0.2133,-0.2137,-0.214,-0.2142,-0.2142,-0.213,-0.2131,-0.2115,-0.2115,-0.2115,0,0,-0.2465,-0.244,-0.2432,-0.2396,-0.2376,-0.2358,-0.2338,-0.232,-0.2306,-0.2273,-0.2251,-0.223,-0.2197,-0.2177,-0.2166,-0.2159,-0.2144,-0.2143,-0.2145,-0.2143,-0.213,-0.2132,-0.2133,-0.2115,-0.2115,-0.2115,0,0,-0.2478,-0.2457,-0.2447,-0.2427,-0.2396,-0.2374,-0.2371,-0.2335,-0.232,-0.2297,-0.2272,-0.2253,-0.2214,-0.2192,-0.2175,-0.2178,-0.2159,-0.217,-0.2183,-0.2172,-0.2174,-0.2175,-0.2175,-0.2176,-0.217,-0.217,-0.217,0,-0.2496,-0.2471,-0.2443,-0.2428,-0.2412,-0.2383,-0.2371,-0.2351,-0.2314,-0.2303,-0.2296,-0.2245,-0.2221,-0.2195,-0.2195,-0.2183,-0.2177,-0.2175,-0.2176,-0.2177,-0.2177,-0.2177,-0.2178,-0.2171,-0.2171,-0.2171,-0.2171,0,-0.2494,-0.2477,-0.2472,-0.2438,-0.2422,-0.2408,-0.2376,-0.2363,-0.2345,-0.2323,-0.2299,-0.2268,-0.2238,-0.2229,-0.2211,-0.22,-0.2197,-0.2183,-0.2171,-0.2181,-0.2181,-0.218,-0.2174,-0.2173,-0.2173,-0.2172,0,0,-0.2528,-0.2479,-0.2478,-0.2462,-0.2425,-0.241,-0.2393,-0.2365,-0.2354,-0.2328,-0.2313,-0.2279,-0.2267,-0.2248,-0.2226,-0.2216,-0.222,-0.2203,-0.2202,-0.2208,-0.2205,-0.2216,-0.2217,-0.2207,-0.2206,-0.2206,-0.2208,0,-0.2536,-0.2508,-0.2482,-0.2463,-0.2445,-0.2416,-0.2402,-0.2376,-0.2354,-0.2335,-0.2309,-0.2287,-0.2272,-0.226,-0.2249,-0.2222,-0.2219,-0.2221,-0.219,-0.2189,-0.2201,-0.2216,-0.2228,-0.2231,-0.2207,-0.2207,-0.2207,0,-0.2542,-0.252,-0.2499,-0.2463,-0.2455,-0.2443,-0.2414,-0.2396,-0.2366,-0.235,-0.2329,-0.2306,-0.2285,-0.2274,-0.2243,-0.2246,-0.2231,-0.2215,-0.2214,-0.2211,-0.22,-0.2214,-0.2231,-0.2232,-0.2207,-0.2207,-0.2207,0,-0.2569,-0.2533,-0.2516,-0.2503,-0.2461,-0.2453,-0.2434,-0.2404,-0.2388,-0.2362,-0.2351,-0.2322,-0.2306,-0.2283,-0.2252,-0.2247,-0.2225,-0.2211,-0.221,-0.2211,-0.2207,-0.2208,-0.2224,-0.2197,-0.2197,-0.2197,-0.2197,0,-0.2581,-0.257,-0.2528,-0.2518,-0.2503,-0.2472,-0.2457,-0.2436,-0.2409,-0.2392,-0.2363,-0.2348,-0.2308,-0.2286,-0.2261,-0.2239,-0.2232,-0.2218,-0.2211,-0.2221,-0.2223,-0.2211,-0.2211,-0.2197,-0.2197,-0.2197,-0.2197,0,-0.261,-0.2582,-0.2561,-0.2523,-0.2513,-0.2504,-0.247,-0.2457,-0.2433,-0.2412,-0.2405,-0.2367,-0.2341,-0.2307,-0.2269,-0.2252,-0.2233,-0.2223,-0.2244,-0.2241,-0.2242,-0.2242,-0.2251,-0.225,-0.2224,-0.2225,-0.2225,0,-0.262,-0.2611,-0.2572,-0.256,-0.2543,-0.2523,-0.2507,-0.2474,-0.2459,-0.2423,-0.2414,-0.2385,-0.2361,-0.2319,-0.2287,-0.2257,-0.2246,-0.2251,-0.2242,-0.2251,-0.2247,-0.2248,-0.2246,-0.2254,-0.2255,-0.2255,-0.2255,0,-0.2641,-0.2628,-0.2607,-0.2581,-0.2563,-0.2541,-0.2517,-0.2508,-0.247,-0.2453,-0.2426,-0.2408,-0.2369,-0.2341,-0.2307,-0.2285,-0.2263,-0.2258,-0.2257,-0.2267,-0.228,-0.2273,-0.2252,-0.2259,-0.2258,-0.2258,-0.2258,-0.2258,-0.2661,-0.2651,-0.2622,-0.26,-0.2579,-0.2557,-0.2543,-0.2518,-0.2496,-0.2464,-0.2445,-0.2419,-0.2386,-0.2338,-0.2317,-0.2294,-0.2287,-0.2284,-0.2283,-0.2284,-0.2287,-0.2283,-0.2288,-0.2288,-0.2288,-0.2287,-0.2287,0,-0.2681,-0.2661,-0.264,-0.2609,-0.259,-0.2573,-0.2545,-0.253,-0.2508,-0.2481,-0.2458,-0.2426,-0.2398,-0.2363,-0.2332,-0.232,-0.2309,-0.2313,-0.2314,-0.2309,-0.2295,-0.23,-0.2322,-0.2322,-0.2322,-0.2322,-0.2322,-0.2322,-0.269,-0.2672,-0.2654,-0.2625,-0.2604,-0.258,-0.2565,-0.2544,-0.2522,-0.2489,-0.2466,-0.2444,-0.2412,-0.2379,-0.2351,-0.2341,-0.2331,-0.2338,-0.2325,-0.2313,-0.231,-0.2307,-0.2312,-0.2336,-0.2336,-0.234,-0.234,-0.2341]},{"header":{"parameterUnit":"m.s-1","parameterCategory":1,"la1":30.2991,"la2":30.254,"lo1":-89.0895,"lo2":-89.0444,"dy":0.0017,"dx":0.0017,"nx":28,"ny":28,"refTime":"2024-08-20T03:00:00:Z","depth":0,"parameterNumber":3,"parameterNumberName":"V-component_of_WINDS"},"data":[0,0,0,0,0,0,0,0,0,0,0,0,0,0,0,0,0,0,0,0,0,0,0,0,0,0,0,0,0,0,0,0,0,0,0,0,0,0,0,0,0,0,0,0,0,0,0,0,0,0,0,0,0,0,0,0,0,0,-1.861,-1.8611,0,-1.8685,-1.8686,-1.8687,-1.8712,-1.8712,-1.8711,-1.8711,-1.8787,-1.8789,-1.8791,0,0,0,0,0,0,0,0,0,0,0,0,0,-1.8488,-1.849,-1.861,-1.8611,-1.8612,-1.8685,-1.8686,-1.8687,-1.8712,-1.8712,-1.8711,-1.8711,-1.8786,-1.8789,-1.8792,0,0,0,0,0,0,0,0,0,0,0,0,0,-1.855,-1.8491,-1.861,-1.8633,-1.8636,-1.8685,-1.8686,-1.8687,-1.8712,-1.8712,-1.8711,-1.8711,-1.8785,-1.8789,-1.8792,-1.8822,0,0,-1.8803,-1.8804,0,0,0,0,0,0,0,0,-1.8546,-1.8554,-1.8629,-1.8632,-1.8635,-1.8689,-1.8671,-1.8732,-1.8712,-1.8683,-1.8711,-1.871,-1.8755,-1.876,-1.8775,-1.8826,-1.8829,-1.8803,-1.8805,-1.8806,-1.8807,0,0,0,0,0,0,0,-1.8542,-1.8551,-1.864,-1.863,-1.8634,-1.864,-1.8648,-1.8682,-1.872,-1.8686,-1.8688,-1.8696,-1.8756,-1.8772,-1.8777,-1.883,-1.8803,-1.8806,-1.8808,-1.8809,-1.8908,-1.8909,0,0,0,0,0,0,-1.8534,-1.8547,-1.8637,-1.8642,-1.8589,-1.8642,-1.8651,-1.8672,-1.872,-1.8727,-1.8697,-1.8697,-1.8766,-1.8773,-1.878,-1.8819,-1.8806,-1.881,-1.8812,-1.8907,-1.8908,-1.8909,0,0,0,0,0,0,-1.8531,-1.8542,-1.8634,-1.8595,-1.8608,-1.8645,-1.8668,-1.8674,-1.869,-1.8728,-1.8735,-1.8706,-1.8766,-1.8775,-1.8811,-1.8822,-1.8811,-1.8814,-1.8907,-1.8908,-1.8908,-1.8896,0,0,0,0,0,0,-1.8528,-1.8541,-1.8553,-1.8595,-1.861,-1.8665,-1.8668,-1.8675,-1.8696,-1.8697,-1.8739,-1.8746,-1.8767,-1.8806,-1.8815,-1.8826,-1.8817,-1.8906,-1.8907,-1.8908,-1.8895,-1.8896,-1.8896,0,0,0,0,0,-1.8523,-1.8547,-1.8554,-1.8564,-1.8626,-1.8666,-1.8674,-1.8698,-1.8696,-1.8709,-1.8733,-1.8744,-1.8819,-1.881,-1.882,-1.8832,-1.8906,-1.8907,-1.8908,-1.8895,-1.8896,-1.8896,0,0,0,0,0,0,-1.8505,-1.8553,-1.8561,-1.8599,-1.8628,-1.867,-1.8687,-1.8698,-1.8728,-1.8728,-1.8756,-1.8765,-1.8799,-1.8819,-1.8808,-1.8863,-1.8863,-1.8866,-1.8849,-1.885,-1.8851,-1.8846,-1.882,0,0,0,0,0,-1.8505,-1.8534,-1.8574,-1.8603,-1.8617,-1.8649,-1.8667,-1.8683,-1.8714,-1.8727,-1.8754,-1.8784,-1.8814,-1.8833,-1.8863,-1.8898,-1.8907,-1.8911,-1.8911,-1.8912,-1.8915,-1.8934,-1.8936,-1.8913,-1.8913,-1.8913,0,0,-1.8507,-1.8536,-1.8553,-1.86,-1.8625,-1.8653,-1.866,-1.869,-1.8711,-1.8731,-1.8767,-1.8788,-1.8823,-1.8858,-1.8875,-1.8876,-1.8923,-1.8913,-1.8913,-1.8916,-1.8935,-1.8937,-1.8939,-1.8914,-1.8913,-1.8913,0,0,-1.8524,-1.8549,-1.8576,-1.86,-1.8636,-1.8657,-1.8663,-1.8703,-1.8717,-1.8754,-1.8769,-1.8794,-1.8846,-1.887,-1.8888,-1.8912,-1.8923,-1.892,-1.8924,-1.8942,-1.8944,-1.8945,-1.8954,-1.8956,-1.8923,-1.8923,-1.8923,0,-1.8521,-1.8564,-1.8588,-1.8617,-1.8638,-1.8657,-1.8684,-1.8706,-1.875,-1.8763,-1.8763,-1.8827,-1.8852,-1.8893,-1.8898,-1.8913,-1.892,-1.8916,-1.8941,-1.8943,-1.8945,-1.8954,-1.8957,-1.8922,-1.8922,-1.8922,-1.8922,0,-1.8559,-1.8588,-1.8606,-1.8648,-1.867,-1.8698,-1.8725,-1.8744,-1.8757,-1.8778,-1.8814,-1.8844,-1.8879,-1.889,-1.8903,-1.8932,-1.8932,-1.8936,-1.8936,-1.8947,-1.8955,-1.8958,-1.8922,-1.8922,-1.8922,-1.8922,0,0,-1.8568,-1.8622,-1.8628,-1.8646,-1.8687,-1.871,-1.8738,-1.8773,-1.8789,-1.8818,-1.8842,-1.8884,-1.8888,-1.8909,-1.8925,-1.894,-1.8956,-1.8943,-1.8944,-1.8945,-1.899,-1.8986,-1.899,-1.8963,-1.8964,-1.8964,-1.8987,0,-1.8591,-1.8642,-1.8664,-1.8705,-1.8732,-1.8749,-1.8774,-1.8801,-1.882,-1.8845,-1.8866,-1.8896,-1.8899,-1.8911,-1.8928,-1.8951,-1.8966,-1.895,-1.8986,-1.8987,-1.8977,-1.8994,-1.8991,-1.9011,-1.899,-1.8991,-1.8991,0,-1.8625,-1.8653,-1.8697,-1.8733,-1.8745,-1.8767,-1.88,-1.8824,-1.8854,-1.8867,-1.8889,-1.8904,-1.8933,-1.893,-1.897,-1.8959,-1.8974,-1.8987,-1.8989,-1.8994,-1.899,-1.9,-1.9018,-1.9021,-1.8996,-1.8996,-1.8995,0,-1.8627,-1.8677,-1.8709,-1.8725,-1.8767,-1.8782,-1.88,-1.883,-1.8849,-1.8877,-1.889,-1.8921,-1.8938,-1.8961,-1.8984,-1.8979,-1.9021,-1.902,-1.9032,-1.9032,-1.9042,-1.9041,-1.9063,-1.905,-1.905,-1.905,-1.905,0,-1.8651,-1.8677,-1.8711,-1.8731,-1.876,-1.8784,-1.8812,-1.8831,-1.8857,-1.8881,-1.8897,-1.8919,-1.8947,-1.8972,-1.8989,-1.9019,-1.9027,-1.9037,-1.9042,-1.9037,-1.9035,-1.9048,-1.9047,-1.9051,-1.9051,-1.9051,-1.9051,0,-1.8659,-1.8683,-1.872,-1.8756,-1.8766,-1.8786,-1.8817,-1.8837,-1.8856,-1.8885,-1.8894,-1.8924,-1.8953,-1.8977,-1.9017,-1.9028,-1.906,-1.9065,-1.905,-1.9052,-1.9063,-1.9062,-1.9095,-1.91,-1.9083,-1.9083,-1.9083,0,-1.8673,-1.8693,-1.8732,-1.8749,-1.8767,-1.8794,-1.8813,-1.8836,-1.8855,-1.889,-1.8905,-1.8936,-1.8963,-1.9009,-1.9034,-1.9064,-1.907,-1.9079,-1.9075,-1.9068,-1.907,-1.9069,-1.9071,-1.908,-1.908,-1.908,-1.908,0,-1.8695,-1.8705,-1.8732,-1.8763,-1.8785,-1.881,-1.8836,-1.8849,-1.8876,-1.8897,-1.8927,-1.8948,-1.8987,-1.9017,-1.9049,-1.9068,-1.9078,-1.9081,-1.9086,-1.9081,-1.9071,-1.9077,-1.9052,-1.9081,-1.9081,-1.9081,-1.9081,-1.9081,-1.8707,-1.8725,-1.8755,-1.8784,-1.8805,-1.8829,-1.8848,-1.8869,-1.8895,-1.8929,-1.8941,-1.8972,-1.9001,-1.9045,-1.9063,-1.9087,-1.9088,-1.9094,-1.9096,-1.9098,-1.9097,-1.9066,-1.9093,-1.9093,-1.9093,-1.9093,-1.9093,0,-1.873,-1.8749,-1.8776,-1.881,-1.8833,-1.884,-1.8868,-1.8887,-1.8914,-1.8939,-1.8964,-1.8999,-1.9028,-1.9054,-1.9084,-1.9099,-1.9104,-1.9106,-1.9105,-1.9109,-1.9094,-1.9088,-1.9101,-1.9101,-1.9101,-1.9101,-1.9101,-1.9101,-1.8745,-1.8776,-1.8789,-1.8831,-1.885,-1.8881,-1.8896,-1.8917,-1.8938,-1.8975,-1.8999,-1.9016,-1.9042,-1.9073,-1.91,-1.9107,-1.9117,-1.9117,-1.9126,-1.9111,-1.911,-1.9109,-1.9103,-1.9119,-1.9119,-1.9139,-1.9139,-1.9139]}]]